MDT,Max TemperatureF,Mean TemperatureF,Min TemperatureF,Max Dew PointF,MeanDew PointF,Min DewpointF,Max Humidity, Mean Humidity, Min Humidity, Max Sea Level PressureIn, Mean Sea Level PressureIn, Min Sea Level PressureIn, Max VisibilityMiles, Mean VisibilityMiles, Min VisibilityMiles, Max Wind SpeedMPH, Mean Wind SpeedMPH, Max Gust SpeedMPH,PrecipitationIn, CloudCover, Events, WindDirDegrees
2013-8-1,65,52,38,46,41,35,82,58,34,30.57,30.12,29.95,10,9,2,20,4,25,0.08,5,Rain-Thunderstorm,353
2013-8-2,71,58,44,44,40,36,89,60,30,30.00,29.95,29.89,10,10,10,20,7,25,0.00,1,,335
2013-8-3,71,56,41,47,40,33,89,57,25,30.52,30.06,29.92,10,10,3,26,4,43,0.03,3,Rain-Thunderstorm,359
2013-8-4,71,55,38,46,41,36,93,62,31,30.55,30.13,30.00,10,10,5,20,6,26,0.01,4,Rain-Thunderstorm,14
2013-8-5,67,53,38,46,41,36,100,68,36,30.50,30.15,29.94,10,10,10,22,5,25,T,4,Rain-Thunderstorm,3
2013-8-6,68,54,39,46,40,33,93,61,29,30.51,30.07,29.91,10,9,2,23,5,31,0.05,4,Rain-Thunderstorm,353
2013-8-7,54,47,39,43,41,38,100,80,59,30.48,30.21,29.93,10,6,0,13,3,18,0.44,6,Fog-Rain,104
2013-8-8,61,50,39,41,37,30,92,65,38,30.43,30.03,29.94,10,10,10,20,7,28,0.01,6,Rain-Thunderstorm,8
2013-8-9,59,48,36,42,38,34,93,68,43,30.48,30.21,30.01,10,10,5,18,4,25,0.02,5,Rain-Thunderstorm,66
2013-8-10,68,50,32,40,32,22,96,57,18,30.51,30.18,30.04,10,10,10,21,5,26,0.00,2,Thunderstorm,330
2013-8-11,70,53,36,38,33,26,92,57,21,30.13,30.05,29.96,10,10,10,21,6,25,0.00,2,,354
2013-8-12,64,50,36,40,35,32,92,62,32,30.12,30.07,30.04,10,10,10,21,4,33,0.01,3,Rain,102
2013-8-13,64,49,33,39,34,29,96,62,27,30.53,30.13,30.05,10,10,10,25,7,33,0.00,2,Thunderstorm,338
2013-8-14,66,49,32,38,30,20,92,55,18,30.54,30.14,30.04,10,10,10,29,6,38,0.00,1,,325
2013-8-15,71,52,33,33,25,19,75,45,15,30.52,30.11,30.02,10,10,10,22,6,32,0.00,2,,319
2013-8-16,74,54,34,31,24,18,70,41,12,30.13,30.07,30.02,10,10,10,17,4,25,0.00,1,,341
2013-8-17,74,57,39,33,27,20,64,39,13,30.10,30.03,29.94,10,10,10,17,4,24,0.00,3,,20
2013-8-18,72,56,40,47,39,30,93,58,22,30.57,30.15,29.97,10,9,2,23,5,29,0.29,4,Rain-Thunderstorm,56
2013-8-19,75,56,37,43,37,29,92,56,19,30.48,30.10,29.98,10,10,10,17,4,23,T,3,Thunderstorm,48
2013-8-20,72,55,37,43,38,32,85,56,26,30.48,30.04,29.93,10,10,2,22,5,28,0.09,3,Rain,32
2013-8-21,74,57,40,47,40,32,86,56,25,30.50,30.06,29.92,10,10,10,17,5,25,0.04,4,Rain-Thunderstorm,72
2013-8-22,71,57,43,47,43,39,89,63,37,30.52,30.17,29.93,10,10,10,21,4,25,0.01,6,Rain-Thunderstorm,19
2013-8-23,72,58,43,48,42,33,100,63,26,30.50,30.07,29.85,10,10,10,31,5,38,0.01,4,Rain-Thunderstorm,48
2013-8-24,67,54,41,47,41,36,92,62,32,30.46,30.03,29.89,10,10,5,25,5,31,0.02,5,Rain-Thunderstorm,352
2013-8-25,64,53,41,51,45,40,100,72,43,30.54,30.11,30.03,10,10,2,16,4,21,0.05,5,Rain,166
2013-8-26,70,58,46,48,46,43,100,71,42,30.54,30.10,29.99,10,10,10,20,5,23,0.04,4,Thunderstorm,6
2013-8-27,73,57,40,46,40,28,100,60,20,30.46,30.04,29.92,10,10,10,16,4,21,0.00,2,Thunderstorm,100
2013-8-28,76,60,43,46,41,27,89,53,17,30.58,30.07,29.91,10,10,10,18,5,24,T,3,Rain-Thunderstorm,23
2013-8-29,75,57,39,48,41,35,89,58,27,30.57,30.13,30.03,10,10,7,20,5,25,0.02,4,Rain-Thunderstorm,5
2013-8-30,69,58,46,48,45,40,93,64,35,30.57,30.20,30.03,10,10,4,20,6,25,0.14,5,Rain-Thunderstorm,359
2013-8-31,69,57,44,50,46,40,93,68,42,30.51,30.14,29.97,10,9,2,21,5,26,0.05,5,Rain-Thunderstorm,17